Flag for Japan Weather past 2 weeks in Utsunomiya, Japan

Now
64 °F

Mild.


Feels Like: 64 °F
Forecast: 52 / 72 °F
Wind: 3 mph from North

Location: Mito

Current Time: Sep 18, 2014 at 3:11:49 AM

Latest Report: Sep 18, 2014 at 2:00 AM


Visibility: N/A

Pressure: 29.87 "Hg

Humidity: 79%

Dew point: 58 °F

Location of UtsunomiyaLocation

Historic Weather in Utsunomiya — Graph

°F

Utsunomiya temperature yesterday

Maximum temperature yesterday: 74 °F (at 11:00 AM)
Minimum temperature yesterday: 66 °F (at 11:00 PM)
Average temperature yesterday: 70 °F

Past Weeks' High & Low Weather Summary

 TemperatureHumidityPressure
High83 °F (Sep 5, 2:00 PM)98% (Sep 6, 1:00 AM)30.03 "Hg (Sep 6, 1:00 AM)
Low61 °F (Sep 12, 6:00 AM)43% (Sep 16, 2:00 PM)29.65 "Hg (Sep 9, 3:00 PM)
Average71 °F80%29.88 "Hg
* Reported Sep 3 1:00 AM — Sep 18 1:00 AM, Utsunomiya, Weather by CustomWeather, © 2014

Note: Actual official high and low records may vary slightly from our data, if they occured in-between our weather recording intervals... More about our weather records

Advertising

Utsunomiya weather history for previous 24 hours

 ConditionsComfort  
Time TempWeatherWind HumidityBarometerVisibility
1:00 AM
Sep 18
66 °FMild.3 mph73%29.89 "HgN/A
12:00 AM66 °FMild.7 mph71%29.90 "HgN/A
11:00 PM
Sep 17
66 °FMild.5 mph75%29.91 "HgN/A
10:00 PM67 °FMild.3 mph71%29.93 "HgN/A
9:00 PM68 °FOvercast.3 mph65%29.93 "Hg9 mi
8:00 PM70 °FMild.8 mph66%29.93 "HgN/A
7:00 PM69 °FMild.7 mph64%29.93 "HgN/A
6:00 PM70 °FMild.7 mph62%29.93 "HgN/A
5:00 PM71 °FMild.9 mph60%29.93 "HgN/A
4:00 PM72 °FMild.8 mph58%29.93 "HgN/A
3:00 PM73 °FOvercast.8 mph52%29.92 "Hg16 mi
2:00 PM74 °FMild.7 mph44%29.93 "HgN/A
1:00 PM74 °FMild.7 mph46%29.94 "HgN/A
12:00 PM74 °FMild.8 mph52%29.96 "HgN/A
11:00 AM74 °FMild.9 mph54%29.98 "HgN/A
10:00 AM74 °FMild.10 mph48%30.01 "HgN/A
9:00 AM72 °FOvercast.9 mph63%30.00 "Hg19 mi
8:00 AM72 °FMild.7 mph67%30.00 "HgN/A
7:00 AM68 °FMild.3 mph78%30.00 "HgN/A
6:00 AM67 °FMild.3 mph84%29.98 "HgN/A
5:00 AM67 °FMild.3 mph84%29.96 "HgN/A
4:00 AM68 °FMild.5 mph82%29.96 "HgN/A
3:00 AM69 °FSprinkles. Overcast.2 mph79%29.95 "Hg9 mi
Weather by CustomWeather, © 2014

See weather overviewHow to use our weather pages